Location: Ferchesar
(52.6477°N, 12.4298°E)
Time: 13:38:07
(UTC+01:00)

Tiros 1 - All Passes

Search period start: 07 March 2021 00:00
Search period end: 17 March 2021 00:00
Orbit: 630 x 664 km, 48.4° (Epoch: 07 March)

Date Brightness Start Highest point End Pass type
(mag) Time Alt. Az. Time Alt. Az. Time Alt. Az.
07 Mar - 01:26:59 10° SSE 01:28:59 13° SE 01:31:01 10° ESE night (unlit)
07 Mar - 03:05:53 10° SW 03:10:12 34° SSE 03:14:32 10° E visible
07 Mar - 04:47:16 10° WSW 04:51:56 52° S 04:56:37 10° ESE visible
07 Mar - 06:29:15 10° W 06:33:45 40° SSW 06:38:14 10° SE daylight
07 Mar - 08:12:01 10° WSW 08:15:07 17° SW 08:18:13 10° S daylight
08 Mar - 01:50:49 10° SSW 01:54:26 22° SSE 01:58:04 10° E visible
08 Mar - 03:31:22 10° WSW 03:35:56 45° SSE 03:40:32 10° E visible
08 Mar - 05:13:07 10° W 05:17:46 50° S 05:22:25 10° ESE visible
08 Mar - 06:55:18 10° W 06:59:26 28° SSW 07:03:32 10° SSE daylight
09 Mar - 00:37:14 10° SSE 00:38:51 12° SE 00:40:30 10° ESE night (unlit)
09 Mar - 02:15:46 10° SW 02:20:02 32° SSE 02:24:19 10° E visible
09 Mar - 03:57:05 10° WSW 04:01:45 52° S 04:06:25 10° E visible
09 Mar - 05:39:02 10° W 05:43:34 41° SSW 05:48:05 10° SE visible
09 Mar - 07:21:43 10° WSW 07:24:58 18° SW 07:28:13 10° S daylight
10 Mar - 01:00:47 10° SSW 01:04:17 20° SSE 01:07:48 10° E night (unlit)
10 Mar - 02:41:13 10° WSW 02:45:45 44° SSE 02:50:19 10° E visible
10 Mar - 04:22:55 10° W 04:27:35 51° S 04:32:15 10° ESE visible
10 Mar - 06:05:05 10° W 06:09:16 30° SSW 06:13:26 10° SE daylight
10 Mar - 23:47:38 10° SSE 23:48:44 11° SE 23:49:50 10° ESE night (unlit)
11 Mar - 01:25:40 10° SW 01:29:52 31° SSE 01:34:05 10° E visible
11 Mar - 03:06:54 10° WSW 03:11:34 51° S 03:16:13 10° E visible
11 Mar - 04:48:50 10° W 04:53:23 42° SSW 04:57:55 10° SE visible
11 Mar - 06:31:26 10° W 06:34:49 19° SW 06:38:12 10° S daylight
12 Mar - 00:10:46 10° S 00:14:08 19° SE 00:17:31 10° E night (unlit)
12 Mar - 01:51:04 10° SW 01:55:33 43° SSE 02:00:07 10° E visible
12 Mar - 03:32:44 10° W 03:37:23 51° S 03:42:04 10° ESE visible
12 Mar - 05:14:51 10° W 05:19:05 31° SSW 05:23:18 10° SE visible
12 Mar - 06:59:10 10° SW 07:00:13 11° SW 07:01:16 10° SSW daylight
13 Mar - 00:35:33 10° SW 00:39:41 30° SSE 00:43:52 10° E night (unlit)
13 Mar - 02:16:44 10° WSW 02:21:22 51° S 02:26:02 10° E visible
13 Mar - 03:58:38 10° W 04:03:11 43° SSW 04:07:46 10° ESE visible
13 Mar - 05:41:09 10° W 05:44:40 20° SSW 05:48:10 10° SSE visible
13 Mar - 23:20:46 10° S 23:23:58 18° SE 23:27:13 10° ESE night (unlit)
14 Mar - 01:00:55 10° SW 01:05:23 41° SSE 01:09:54 10° E night (unlit)
14 Mar - 02:42:33 10° W 02:47:12 51° S 02:51:52 10° ESE visible
14 Mar - 04:24:38 10° W 04:28:54 32° SSW 04:33:11 10° SE visible
14 Mar - 06:08:30 10° WSW 06:10:05 11° SW 06:11:39 10° SSW daylight
14 Mar - 23:45:28 10° SSW 23:49:31 29° SSE 23:53:37 10° E night (unlit)
15 Mar - 01:26:34 10° WSW 01:31:10 50° S 01:35:49 10° E night (unlit)
15 Mar - 03:08:27 10° W 03:13:01 44° SSW 03:17:35 10° ESE visible
15 Mar - 04:50:53 10° W 04:54:30 21° SSW 04:58:07 10° SSE visible
15 Mar - 22:30:47 10° S 22:33:50 17° SE 22:36:54 10° ESE night (unlit)
16 Mar - 00:10:46 10° SW 00:15:12 40° SSE 00:19:41 10° E night (unlit)
16 Mar - 01:52:22 10° WSW 01:57:00 52° S 02:01:40 10° ESE visible
16 Mar - 03:34:26 10° W 03:38:44 33° SSW 03:43:02 10° SE visible
16 Mar - 05:18:00 10° WSW 05:19:57 12° SW 05:21:53 10° SSW visible
16 Mar - 22:55:23 10° SSW 22:59:22 27° SSE 23:03:23 10° E night (unlit)
